User: anonymous   Login
Location: Karaa?a�
(36.7158°N, 30.4165°E)
Time: 12:21:26
(UTC+00:00)
Language:

Cosmos 1825 Rocket - Orbit

View from above orbital plane
View from above orbital plane
View from above satellite
View from above satellite

Ground track
Ground track

The orbit data is extracted from the following two-line orbital elements,

1 17567U 87024B   20190.87037499 +.00000061 +00000-0 +44563-5 0  9990
2 17567 082.5281 232.8424 0017634 257.8094 102.1146 14.83765118781112
Epoch (UTC): 08 July 2020 20:53:20
Eccentricity: 0.0017634
inclination: 82.5281°
perigee height: 605 km
apogee height: 630 km
right ascension of ascending node: 232.8424°
argument of perigee: 257.8094°
revolutions per day: 14.83765118
mean anomaly at epoch: 102.1146°
orbit number at epoch: 78111

The dashed part of the orbit path shows where the satellite is in the earth's shadow,  

DLR